map of YQU home
YQU - Airport
Location
City:  Grande Prairie, Alberta, Canada
Name:Grande Prairie Airport
ICAO:CYQU
IATA:YQU

Details
Type:Airport (Airfield)
Use:Public/Civil
Latitude:5510'55"N (55.181944)
Longitude:11853'14"W (-118.887221)
Elevation:2196 ft (669 m)
Variation:16.61E (WMM2015 magnetic declination)
-0.20 annual change
Runways:2
Longest:8502 ft (2591 m), paved

Time
Time Zone:UTC-7 (DST-6)
Local Time:

Weather
METAR:CYQU 231900Z 00000KT 25SM SKC 07/M02 A2985 RMK SLP137
TAF:CYQU 231838Z 2319/2407 VRB03KT P6SM SKC
BECMG 2319/2321 09005KT
RMK NXT FCST BY 240100Z

Related Locations
Nearby:
Farthest:YWKS: 10624 mi / 17098 km
Wilkins Runway (Casey), Upper Peterson Glacier, AQ

Find:

   beyond  
but within

Other Information
Maps:
NOTAMs:
Links:
Sources:

  
  • flag of Canada
  • flag of Alberta
  

Airport Diagram

Airport diagram for YQU

Airport diagram PDF

Sectional Chart

Flight Planning
at skyvector.com

Satellite Image

Google Maps Satellite view

 

Copyright © 2004-2018 Karl L. Swartz. All rights reserved.
The Great Circle Mapper name and logo are trademarks of the Great Circle Mapper.
All other trademarks mentioned herein belong to their respective owners.
Please see credits for attibutions and further copyright information.

  Follow gcmap on Facebook Follow gcmap on Twitter Follow gcmap on Google+ GCmap on LinkedIn

hCard Microformat

Geo Microformat